This is the latest recevied weather packets stored in our database for station/object E25WOP-13. If no packets are shown the sender has not sent any weather packets the latest 10 day(s).
| Time | Temp. | Humidity | Pressure | Rain* | Wind** | Luminosity | Snow |
|---|---|---|---|---|---|---|---|
| 1777548017 | -17.78° C | - | 1005.2 hPa | 0 mm | - | - | - |
| 1777547417 | -17.78° C | - | 1005 hPa | 0 mm | - | - | - |
| 1777546817 | -17.78° C | - | 1005.3 hPa | 0 mm | - | - | - |
| 1777546217 | -17.78° C | - | 1005.3 hPa | 0 mm | - | - | - |
| 1777545617 | -17.78° C | - | 1005.3 hPa | 0 mm | - | - | - |
| 1777545017 | -17.78° C | - | 1005.2 hPa | 0 mm | - | - | - |
| 1777544417 | -17.78° C | - | 1005.1 hPa | 0 mm | - | - | - |
| 1777543817 | -17.78° C | - | 1005 hPa | 0 mm | - | - | - |
| 1777543217 | -17.78° C | - | 1004.8 hPa | 0 mm | - | - | - |
| 1777542617 | -17.78° C | - | 1004.7 hPa | 0 mm | - | - | - |
| 1777542017 | -17.78° C | - | 1004.9 hPa | 0 mm | - | - | - |
| 1777541417 | 33.33° C | 64% | 1004.8 hPa | 0 mm | - | 162 W/m² | - |
| 1777540817 | 33.33° C | 65% | 1004.8 hPa | 0 mm | - | 109 W/m² | - |
| 1777540217 | 33.33° C | 64% | 1004.8 hPa | 0 mm | - | 170 W/m² | - |
| 1777539617 | 33.33° C | 64% | 1005 hPa | 0 mm | - | 235 W/m² | - |
| 1777539017 | 33.33° C | 66% | 1004.8 hPa | 0 mm | - | 232 W/m² | - |
| 1777538417 | 33.33° C | 68% | 1004.8 hPa | 0 mm | - | 257 W/m² | - |
| 1777537817 | 33.33° C | 66% | 1004.6 hPa | 0 mm | - | 293 W/m² | - |
| 1777537217 | 33.33° C | 66% | 1004.9 hPa | 0 mm | - | 324 W/m² | - |
| 1777536617 | 33.33° C | 68% | 1005.3 hPa | 0 mm | - | 365 W/m² | - |
| 1777536017 | 33.33° C | 64% | 1005.6 hPa | 0 mm | - | 381 W/m² | - |
| 1777535417 | 33.89° C | 63% | 1005.8 hPa | 0 mm | - | 407 W/m² | - |
| 1777534817 | 33.33° C | 65% | 1005.8 hPa | 0 mm | - | 437 W/m² | - |
| 1777534217 | 33.33° C | 61% | 1006 hPa | 0 mm | - | 485 W/m² | - |
| 1777533616 | 33.33° C | 66% | 1006.5 hPa | 0 mm | - | 499 W/m² | - |
* Rain latest hour (hover to see other rain measurements)
** Current wind speed in m/s (hover to see current wind gust speed)